Location: Eastlake (historical)
(39.0077°N, 122.6678°W)
Time: 03:56:18
(UTC+00:00)

Envisat - Pass Details

Date: 25 November 2020
Orbit: 764 x 766 km, 98.1° (Epoch: 24 January)

Event Time Altitude Azimuth Distance (km) Brightness Sun altitude
Rises 14:03:33 0° 13° (NNE) 3,241 6.2 -11.9°
Reaches altitude 10° 14:05:52 10° 14° (NNE) 2,311 5.5 -11.5°
Maximum altitude 14:10:59 85° 103° (ESE) 774 3.1 -10.5°
Drops below altitude 10° 14:16:03 10° 192° (SSW) 2,294 5.6 -9.6°
Sets 14:18:20 0° 193° (SSW) 3,216 6.3 -9.2°
